Zurück zum Katalog

SL-14 DEB

AktivPO
NORAD 45334·DEBRIS·🇷🇺 Russia

Gestartet Aug 15, 1991 von Plesetsk Cosmodrome

Loading…

Nächste Überflüge (nächste 24 Stunden)

TLE

AktuellSource: Space-Track

Epoche: Sep 13, 2026, 03:16 UTC

1 45334U 91056BY  26256.13664928  .00000176  00000-0  36361-3 0  9996
2 45334  82.5547  49.9164 0046810 118.7849 241.7992 13.26747208317096

Verfolge SL-14 DEB in Echtzeit mit AllMySat

Download on the App Store